Weather History for Fallon NAS, NV

Change the Weather History Date:

Wednesday, October 30, 2013

  Actual Average Record
Temperature  
Mean Temperature 40 °F -  
Max Temperature 50 °F 58 °F 79 °F (2012)
Min Temperature 32 °F 29 °F 15 °F (1929)
Degree Days  
Heating Degree Days 25    
Moisture  
Dew Point 31 °F    
Average Humidity 77    
Maximum Humidity 96    
Minimum Humidity 50    
Precipitation  
Precipitation 0.00 in - - ()
Sea Level Pressure  
Sea Level Pressure 30.04 in    
Wind  
Wind Speed 4 mph (SE)    
Max Wind Speed 9 mph    
Max Gust Speed -    
Visibility 10 miles    
Events      
Averages and records for this station are not official NWS values.
T = Trace of Precipitation, MM = Missing Value Source: NWS Daily Summary

Daily Weather History Graph

Daily Weather History Graph

Search for Another Location

Airport:

Trip Planner

Search our weather history database for the weather conditions in past years. The results will help you decide how hot, cold, wet, or windy it might be!

Date:

Astronomy

Oct. 30, 2013 Rise Set
Actual Time 7:21 AM PDT 5:55 PM PDT
Civil Twilight 6:53 AM PDT 6:23 PM PDT
Nautical Twilight 6:21 AM PDT 6:54 PM PDT
Astronomical Twilight 5:50 AM PDT 7:25 PM PDT
Moon 3:15 AM PDT (10/30) 3:42 PM PDT (10/30)
Length of Visible Light 11h 29m
Length of Day
10h 34m
Waning Crescent, 16% of the Moon is Illuminated
Oct 30
Waning Crescent
Nov 3
New
Nov 9
First Quarter
Nov 17
Full
Nov 25
Last Quarter

Hourly Weather History & Observations

Time (PDT) Temp. Windchill Dew Point Humidity Pressure Visibility Wind Dir Wind Speed Gust Speed Precip Events Conditions
12:56 AM 36.0 °F 30.3 °F 34.0 °F 93% 29.99 in 10.0 mi SE 6.9 mph - N/A   Overcast
1:56 AM 35.1 °F 31.0 °F 33.1 °F 92% 29.99 in 10.0 mi SE 4.6 mph - N/A   Overcast
2:56 AM 34.0 °F - 30.9 °F 89% 29.99 in 10.0 mi North - - N/A   Partly Cloudy
3:56 AM 34.0 °F 31.0 °F 32.0 °F 92% 30.00 in 10.0 mi South 3.5 mph - N/A   Overcast
4:56 AM 33.1 °F 27.7 °F 30.9 °F 92% 30.00 in 10.0 mi SE 5.8 mph - N/A   Mostly Cloudy
5:56 AM 32.0 °F 26.4 °F 30.0 °F 92% 30.01 in 10.0 mi SSE 5.8 mph - N/A   Clear
6:16 AM 32.0 °F 27.5 °F 30.2 °F 93% 30.10 in 10.0 mi SE 4.6 mph - N/A   Clear
6:56 AM 32.0 °F 28.7 °F 30.0 °F 92% 30.01 in 10.0 mi ESE 3.5 mph - N/A   Partly Cloudy
7:56 AM 32.0 °F 27.5 °F 30.9 °F 96% 30.03 in 10.0 mi SSE 4.6 mph - N/A   Partly Cloudy
8:56 AM 36.0 °F 29.6 °F 30.0 °F 79% 30.05 in 10.0 mi SSE 8.1 mph - N/A   Partly Cloudy
9:56 AM 39.0 °F 36.8 °F 32.0 °F 76% 30.06 in 10.0 mi SE 3.5 mph - N/A   Scattered Clouds
10:56 AM 41.0 °F - 30.9 °F 67% 30.06 in 10.0 mi Calm Calm - N/A   Partly Cloudy
11:56 AM 45.0 °F - 30.9 °F 58% 30.06 in 10.0 mi Calm Calm - N/A   Scattered Clouds
12:56 PM 45.0 °F - 30.0 °F 56% 30.04 in 10.0 mi Calm Calm - N/A   Scattered Clouds
1:56 PM 48.0 °F - 30.0 °F 50% 30.02 in 10.0 mi Calm Calm - N/A   Scattered Clouds
2:56 PM 48.9 °F - 30.9 °F 50% 30.01 in 10.0 mi Calm Calm - N/A   Scattered Clouds
3:56 PM 48.9 °F - 30.9 °F 50% 30.01 in 10.0 mi East 3.5 mph - N/A   Scattered Clouds
4:56 PM 48.9 °F - 30.9 °F 50% 30.02 in 10.0 mi NNE 4.6 mph - N/A   Scattered Clouds
5:56 PM 46.0 °F 43.1 °F 33.1 °F 61% 30.03 in 10.0 mi NE 5.8 mph - N/A   Scattered Clouds
6:56 PM 42.1 °F 39.2 °F 34.0 °F 73% 30.05 in 10.0 mi ENE 4.6 mph - N/A   Partly Cloudy
7:56 PM 39.9 °F 36.7 °F 33.1 °F 77% 30.06 in 10.0 mi ENE 4.6 mph - N/A   Clear
8:56 PM 37.0 °F - 33.1 °F 86% 30.08 in 10.0 mi Calm Calm - N/A   Clear
9:56 PM 37.9 °F - 33.1 °F 83% 30.10 in 10.0 mi Calm Calm - N/A   Clear
10:56 PM 35.1 °F 31.0 °F 32.0 °F 89% 30.11 in 10.0 mi SSW 4.6 mph - N/A   Clear
11:56 PM 33.1 °F 25.5 °F 30.0 °F 89% 30.11 in 10.0 mi SE 9.2 mph - N/A   Clear